• In Latvia
  • List of Countries
  • For 7 days
  • Water Temperature
  • Satellite Maps
  • Weather Map
  • Weather Widgets
  • user-avatar
    Login

    Hourly Weather Shkoder

    Today, 8 December, Thursday

    Time Temperature Precipitation Wind Pressure Humidity
    00:00 +1°C° 0 mm 3 mps 754 mmHg 66%
    01:00 +1°C° 0 mm 3 mps 754 mmHg 64%
    02:00 +1°C° 0 mm 3 mps 754 mmHg 61%
    03:00 +1°C° 0 mm 3 mps 754 mmHg 59%
    04:00 +2°C° 0 mm 2 mps 754 mmHg 56%
    05:00 +2°C° 0 mm 2 mps 754 mmHg 53%
    06:00 +2°C° 0 mm 2 mps 754 mmHg 51%
    07:00 +2°C° 0 mm 2 mps 754 mmHg 48%
    08:00 +5°C° 0 mm 2 mps 754 mmHg 44%
    09:00 +8°C° 0 mm 1 mps 754 mmHg 39%
    10:00 +10°C° 0 mm 1 mps 754 mmHg 35%
    11:00 +11°C° 0 mm 1 mps 754 mmHg 34%
    12:00 +12°C° 0 mm 1 mps 753 mmHg 34%
    13:00 +11°C° 0 mm 0 mps 753 mmHg 33%
    14:00 +10°C° 0 mm 1 mps 753 mmHg 42%
    15:00 +8°C° 0 mm 1 mps 753 mmHg 51%
    16:00 +5°C° 0 mm 1 mps 753 mmHg 60%
    17:00 +5°C° 0 mm 1 mps 753 mmHg 60%
    18:00 +5°C° 0 mm 1 mps 752 mmHg 59%
    19:00 +5°C° 0 mm 1 mps 752 mmHg 58%
    20:00 +5°C° 0 mm 1 mps 752 mmHg 57%
    21:00 +5°C° 0 mm 1 mps 752 mmHg 55%
    22:00 +5°C° 0 mm 1 mps 752 mmHg 53%
    23:00 +5°C° 0 mm 1 mps 752 mmHg 54%

    Tomorrow, 9 December, Friday

    Time Temperature Precipitation Wind Pressure Humidity
    00:00 +5°C° 0 mm 1 mps 752 mmHg 55%
    01:00 +5°C° 0 mm 1 mps 751 mmHg 56%
    02:00 +5°C° 0 mm 1 mps 751 mmHg 56%
    03:00 +5°C° 0 mm 1 mps 751 mmHg 56%
    04:00 +5°C° 0 mm 1 mps 750 mmHg 57%
    05:00 +5°C° 0 mm 1 mps 750 mmHg 58%
    06:00 +5°C° 0 mm 1 mps 750 mmHg 60%
    07:00 +5°C° 0 mm 1 mps 750 mmHg 61%
    08:00 +7°C° 0 mm 1 mps 750 mmHg 56%
    09:00 +10°C° 0 mm 1 mps 750 mmHg 51%
    10:00 +12°C° 0 mm 1 mps 750 mmHg 45%
    11:00 +13°C° 0 mm 1 mps 750 mmHg 47%
    12:00 +13°C° 0 mm 1 mps 750 mmHg 49%
    13:00 +14°C° 0 mm 1 mps 749 mmHg 51%
    14:00 +11°C° 0 mm 1 mps 749 mmHg 60%
    15:00 +9°C° 0 mm 1 mps 749 mmHg 70%
    16:00 +7°C° 0 mm 1 mps 749 mmHg 79%
    17:00 +7°C° 0 mm 1 mps 749 mmHg 76%
    18:00 +7°C° 0 mm 1 mps 749 mmHg 73%
    19:00 +6°C° 0 mm 1 mps 749 mmHg 71%
    20:00 +6°C° 0 mm 1 mps 749 mmHg 66%
    21:00 +5°C° 0 mm 2 mps 749 mmHg 62%
    22:00 +5°C° 0 mm 2 mps 749 mmHg 58%
    23:00 +5°C° 0 mm 2 mps 748 mmHg 55%

    Day after tomorrow, 10 December, Saturday

    Time Temperature Precipitation Wind Pressure Humidity
    00:00 +5°C° 0 mm 2 mps 748 mmHg 51%
    01:00 +5°C° 0 mm 2 mps 748 mmHg 48%
    02:00 +5°C° 0 mm 2 mps 748 mmHg 46%
    03:00 +5°C° 0 mm 2 mps 747 mmHg 44%
    04:00 +5°C° 0 mm 2 mps 747 mmHg 42%
    05:00 +6°C° 0 mm 2 mps 747 mmHg 44%
    06:00 +6°C° 0 mm 2 mps 747 mmHg 45%
    07:00 +6°C° 0 mm 2 mps 747 mmHg 47%
    08:00 +8°C° 0 mm 2 mps 747 mmHg 47%
    09:00 +10°C° 0 mm 2 mps 747 mmHg 48%
    10:00 +13°C° 0 mm 2 mps 748 mmHg 48%
    11:00 +14°C° 0 mm 1 mps 747 mmHg 50%
    12:00 +15°C° 0 mm 1 mps 747 mmHg 51%
    13:00 +16°C° 0 mm 1 mps 746 mmHg 52%
    14:00 +14°C° 0 mm 1 mps 746 mmHg 61%
    15:00 +12°C° 0 mm 1 mps 746 mmHg 69%
    16:00 +9°C° 0 mm 1 mps 746 mmHg 77%
    17:00 +9°C° 0 mm 1 mps 746 mmHg 77%
    18:00 +9°C° 0 mm 1 mps 746 mmHg 78%
    19:00 +7°C° 0 mm 2 mps 746 mmHg 79%
    20:00 +8°C° 0 mm 1 mps 746 mmHg 78%
    21:00 +8°C° 0 mm 1 mps 746 mmHg 77%
    22:00 +8°C° 0 mm 1 mps 745 mmHg 76%
    23:00 +8°C° 0 mm 1 mps 745 mmHg 76%

    11 December, Sunday

    Time Temperature Precipitation Wind Pressure Humidity
    00:00 +7°C° 0 mm 1 mps 745 mmHg 76%
    01:00 +7°C° 0 mm 1 mps 745 mmHg 77%
    02:00 +7°C° 0 mm 1 mps 744 mmHg 78%
    03:00 +6°C° 0 mm 0 mps 744 mmHg 78%
    04:00 +5°C° 0 mm 0 mps 744 mmHg 79%
    05:00 +5°C° 0 mm 0 mps 744 mmHg 79%
    06:00 +5°C° 0 mm 0 mps 743 mmHg 79%
    07:00 +5°C° 0 mm 0 mps 743 mmHg 80%
    08:00 +8°C° 0 mm 0 mps 743 mmHg 72%
    09:00 +11°C° 0 mm 0 mps 744 mmHg 63%
    10:00 +13°C° 0 mm 0 mps 744 mmHg 55%
    11:00 +15°C° 0 mm 1 mps 743 mmHg 57%
    12:00 +15°C° 0 mm 1 mps 743 mmHg 59%
    13:00 +15°C° 0 mm 1 mps 742 mmHg 60%
    14:00 +13°C° 0 mm 1 mps 742 mmHg 70%
    15:00 +11°C° 0 mm 1 mps 741 mmHg 79%
    16:00 +9°C° 0 mm 1 mps 741 mmHg 88%
    17:00 +9°C° 0 mm 1 mps 741 mmHg 89%
    18:00 +8°C° 0 mm 1 mps 741 mmHg 90%
    19:00 +8°C° 0 mm 1 mps 741 mmHg 90%
    20:00 +7°C° 0 mm 1 mps 741 mmHg 90%
    21:00 +7°C° 0 mm 1 mps 741 mmHg 91%
    22:00 +7°C° 0 mm 1 mps 741 mmHg 91%
    23:00 +7°C° 0 mm 1 mps 741 mmHg 91%

    12 December, Monday

    Time Temperature Precipitation Wind Pressure Humidity
    00:00 +7°C° 0 mm 1 mps 741 mmHg 91%
    01:00 +6°C° 0 mm 1 mps 741 mmHg 91%
    02:00 +6°C° 0 mm 1 mps 741 mmHg 91%
    03:00 +6°C° 0 mm 1 mps 740 mmHg 91%
    04:00 +6°C° 0 mm 1 mps 740 mmHg 91%
    05:00 +6°C° 0 mm 1 mps 740 mmHg 89%
    06:00 +6°C° 0 mm 1 mps 741 mmHg 87%
    07:00 +6°C° 0 mm 1 mps 741 mmHg 85%
    08:00 +8°C° 0 mm 1 mps 741 mmHg 77%
    09:00 +9°C° 0 mm 2 mps 741 mmHg 69%
    10:00 +12°C° 0 mm 2 mps 742 mmHg 61%
    11:00 +12°C° 0 mm 2 mps 741 mmHg 59%
    12:00 +13°C° 0 mm 2 mps 741 mmHg 56%
    13:00 +14°C° 0 mm 2 mps 741 mmHg 54%
    14:00 +12°C° 0 mm 2 mps 741 mmHg 60%
    15:00 +10°C° 0 mm 2 mps 741 mmHg 65%
    16:00 +8°C° 0 mm 2 mps 741 mmHg 71%
    17:00 +7°C° 0 mm 2 mps 742 mmHg 72%
    18:00 +7°C° 0 mm 3 mps 742 mmHg 74%
    19:00 +5°C° 0 mm 3 mps 743 mmHg 75%
    20:00 +5°C° 0 mm 3 mps 743 mmHg 76%
    21:00 +4°C° 0 mm 3 mps 743 mmHg 77%
    22:00 +4°C° 0 mm 3 mps 743 mmHg 77%
    23:00 +4°C° 0 mm 3 mps 744 mmHg 78%

    13 December, Tuesday

    Time Temperature Precipitation Wind Pressure Humidity
    00:00 +4°C° 0 mm 3 mps 744 mmHg 78%
    01:00 +3°C° 0 mm 3 mps 744 mmHg 79%
    02:00 +3°C° 0 mm 3 mps 744 mmHg 78%
    03:00 +3°C° 0 mm 3 mps 744 mmHg 78%
    04:00 +3°C° 0 mm 3 mps 744 mmHg 78%
    05:00 +3°C° 0 mm 3 mps 744 mmHg 77%
    06:00 +3°C° 0 mm 3 mps 745 mmHg 77%
    07:00 +3°C° 0 mm 3 mps 745 mmHg 76%
    08:00 +5°C° 0 mm 3 mps 745 mmHg 70%
    09:00 +7°C° 0 mm 3 mps 745 mmHg 64%
    10:00 +9°C° 0 mm 3 mps 746 mmHg 58%
    11:00 +9°C° 0 mm 3 mps 745 mmHg 56%
    12:00 +10°C° 0 mm 3 mps 745 mmHg 54%
    13:00 +11°C° 0 mm 3 mps 745 mmHg 52%
    14:00 +9°C° 0 mm 3 mps 745 mmHg 58%
    15:00 +8°C° 0 mm 3 mps 745 mmHg 64%
    16:00 +7°C° 0 mm 3 mps 746 mmHg 70%
    17:00 +5°C° 0 mm 3 mps 746 mmHg 73%
    18:00 +4°C° 0 mm 3 mps 746 mmHg 76%
    19:00 +4°C° 0 mm 3 mps 746 mmHg 79%
    20:00 +3°C° 0 mm 3 mps 747 mmHg 81%
    21:00 +3°C° 0 mm 3 mps 747 mmHg 82%
    22:00 +3°C° 0 mm 3 mps 747 mmHg 83%
    23:00 +3°C° 0 mm 3 mps 747 mmHg 84%
    Show more